User: anonymous   Login
Location: Unspecified
(0.0000°N, 0.0000°E)
Time: 00:07:37
(UTC+00:00)
Language:

STARLINK-11617 [DTC] - Orbit

View from above orbital plane
View from above orbital plane
View from above satellite
View from above satellite

Ground track
Ground track

The orbit is defined by the following mean orbital elements,

1 63184U          26145.59442066 +.00000000 +00000-0 +12458-2 0 00001
2 63184  42.9987 216.5757 0000912  89.3996 270.6976 15.70985201    07
Epoch (UTC): 25 May 2026 14:15:57
Eccentricity: 0.0000912
inclination: 42.9987°
perigee height: 355 km
apogee height: 357 km
right ascension of ascending node: 216.5757°
argument of perigee: 89.3996°
revolutions per day: 15.70985201
mean anomaly at epoch: 270.6976°

The dashed part of the orbit path shows where the satellite is in the earth's shadow,  

DLR